Preview of NWS' New Version of Forecast
This preview is not operational and should not be used for support decisions.

Regional Weather Roundup (RWR)

Issued by National Weather Service (NWS)

                            
000
ASUS45 KBOU 201710
RWRCO 

WEATHER ROUNDUP FOR COLORADO
NATIONAL WEATHER SERVICE DENVER/BOULDER CO
1100 AM MDT THU JUN 20 2019

NOTE: "FAIR" INDICATES FEW OR NO CLOUDS BELOW 12000 FEET WITH NO
SIGNIFICANT WEATHER AND/OR OBSTRUCTIONS TO VISIBILITY.

COZ001>005-013-030-031-201800-
...NORTHWEST COLORADO...
  
CITY           SKY/WX    TMP DP  RH WIND       PRES   REMARKS
CRAIG          FAIR      72  37  28 NE5       29.91F                  
HAYDEN         FAIR      67  36  31 E6        29.95F                  
MEEKER         FAIR      72  36  26 VRB5      29.92F                  
RANGELY        FAIR      78  37  22 W10       29.85F                  
RABBIT EARS PA NOT AVBL                                               
STEAMBOAT SPGS FAIR      64  33  32 CALM      29.96F                  
WALDEN         NOT AVBL                                               
$$

COZ006>008-011-201800-
...WEST CENTRAL VALLEYS...
  
CITY           SKY/WX    TMP DP  RH WIND       PRES   REMARKS
GRAND JUNCTION FAIR      82  40  22 CALM      29.84F                  
MONTROSE       FAIR      81  37  20 VRB6      29.94F                  
EAGLE          FAIR      75  39  27 W12G18    29.95F                  
RIFLE          FAIR      75  41  29 MISG      29.89F                  
DELTA          FAIR      84  36  18 SE6       29.89F                  
NUCLA          NOT AVBL                                               
$$

COZ017>023-064>068-201800-
...SOUTHWEST COLORADO...
  
CITY           SKY/WX    TMP DP  RH WIND       PRES   REMARKS
DURANGO        FAIR      75  35  23 W6        30.07F                  
CORTEZ         FAIR      80  33  18 W5G21     30.01F                  
PAGOSA SPRINGS FAIR      70  36  29 S8        30.15F                  
TELLURIDE      CLOUDY    63  32  31 CALM      30.21F                  
WOLF CREEK PAS NOT AVBL                                               
$$

COZ009-010-012-014-032>034-037-058>063-201800-
...CENTRAL COLORADO...
  
CITY           SKY/WX    TMP DP  RH WIND       PRES   REMARKS
ASPEN          FAIR      72  33  24 SW13G31   30.04S                  
BUENA VISTA    PTSUNNY   73  25  17 W22G30    30.04S                  
COPPER MTN     FAIR      52  28  40 SW20G38   30.31S                  
BERTHOUD PASS  FAIR      45  34  65 W39G58    30.29F                  
COTTONWOOD PAS NOT AVBL                                               
GUNNISON       FAIR      69  43  38 CALM      30.07F                  
GRANBY         FAIR      65  39  39 W6        30.06S                  
KREMMLING      FAIR      68  41  37 SE3       30.01F                  
LEADVILLE      PTSUNNY   61  27  27 W9G24     30.16F                  
MONARCH PASS   FAIR      50  30  46 MISG      30.42F                  
SALIDA         FAIR      77  29  17 W16G22    30.11S                  
SUNLIGHT       FAIR      54  32  43 SW18G36   30.25F                  
WILKERSON PASS PTSUNNY   55  21  26 SW17G28   30.28S                  
$$

COZ069>075-201800-
...SAN LUIS VALLEY/SANGRE DE CRISTO MOUNTAINS...
  
CITY           SKY/WX    TMP DP  RH WIND       PRES   REMARKS
ALAMOSA        FAIR      77  29  17 SW16G28   30.07F                  
DEL NORTE      FAIR      76  27  16 SW15G29   30.09F                  
LA VETA PASS   NOT AVBL                                               
SAGUACHE       FAIR      68  39  34 CALM      30.09F                  
$$

COZ035-036-038>040-201800-
...NORTHERN COLORADO FRONT RANGE...
  
CITY           SKY/WX    TMP DP  RH WIND       PRES   REMARKS
DENVER INTL AP PTSUNNY   70  47  43 SE7       29.89F                  
AURORA         MOSUNNY   71  46  41 E10       29.91F                  
FRONT RANGE AP MOSUNNY   72  48  43 E10       29.91F                  
ERIE MUNI ARPT FAIR      73  43  34 SE6       29.92F                  
BOULDER MUN AP FAIR      72  45  37 SE7       29.88F                  
CENTENNIAL     FAIR      72  44  36 SE8       29.92F                  
BROOMFIELD     MOSUNNY   72  43  35 E7        29.90F                  
FORT COLLINS   FAIR      69  48  47 S12       29.88F                  
LONGMONT       FAIR      73  46  38 SE3       29.89F                  
$$

COZ041-046-047-076>085-087-088-201800-
...PIKES PEAK/PALMER DIVIDE AND SOUTHERN FOOTHILLS...
  
CITY           SKY/WX    TMP DP  RH WIND       PRES   REMARKS
COLO. SPRINGS  FAIR      75  43  31 S14       29.96F                  
A. F. ACADEMY  FAIR      74  41  29 S18       29.95F                  
SCHRIEVER AFB  NOT AVBL                                               
CHEYENNE MTN   NOT AVBL                                               
ELLICOTT         N/A    N/A N/A N/A SE13      29.95S                  
FALCON         FAIR      72  39  31 SE9       30.01F                  
FORT CARSON    FAIR      75  45  33 S9        29.92F                  
LIMON          FAIR      71  48  43 NE7       29.92F                  
MONUMENT HILL  FAIR      68  39  34 SE10G17   30.01F                  
CANON CITY     FAIR      82  43  24 E12G22    29.90S                  
WALSENBURG     NOT AVBL                                               
TRINIDAD       FAIR      89  32  13 W16G25    29.93F                  
$$

COZ042>045-048>051-090-091-201800-
...NORTHEAST COLORADO...
  
CITY           SKY/WX    TMP DP  RH WIND       PRES   REMARKS
GREELEY ARPT   FAIR      72  51  47 S8        29.87F                  
AKRON          FAIR      68  51  54 E8        29.88F                  
BURLINGTON     FAIR      78  51  38 NE10      29.87R                  
WRAY           FAIR      77  50  38 NE6       29.84F                  
YUMA           FAIR      70  36  28 E7        29.86F                  
STERLING       FAIR      70  54  56 S5        29.84F                  
HOLYOKE        FAIR      77  54  44 NE5       29.84F                  
FORT MORGAN    FAIR      68  47  47 SE7       29.88F                  
$$

COZ086-089-092>099-201800-
...SOUTHEAST COLORADO...
  
CITY           SKY/WX    TMP DP  RH WIND       PRES   REMARKS
PUEBLO         FAIR      80  50  34 SE15      29.86F                  
LA JUNTA       FAIR      85  46  25 SE8       29.85S                  
LAMAR          FAIR      81  56  42 MISG      29.82R                  
SPRINGFIELD      N/A     83  49  30 NW7       29.85F                  
$$